Time,TemperatureF,DewpointF,PressureIn,WindDirection,WindDirectionDegrees,WindSpeedMPH,WindSpeedGustMPH,Humidity,HourlyPrecipIn,Conditions,Clouds,dailyrainin,SoftwareType,DateUTC
2013-01-01 00:02:00,27.0,15.0,29.09,NNE,15,0.0,5.0,60,0.00,,,0.00,,2013-01-01 09:02:00,
2013-01-01 00:11:00,27.0,15.0,29.09,NNE,15,0.0,5.0,60,0.00,,,0.00,,2013-01-01 09:11:00,
2013-01-01 00:21:00,27.0,15.0,29.08,NNE,15,0.0,0.0,60,0.00,,,0.00,,2013-01-01 09:21:00,
2013-01-01 00:32:00,26.0,14.0,29.08,NNE,13,0.0,0.0,60,0.00,,,0.00,,2013-01-01 09:32:00,
2013-01-01 00:42:00,26.0,14.0,29.08,NNE,13,0.0,0.0,60,0.00,,,0.00,,2013-01-01 09:42:00,
2013-01-01 00:52:00,27.0,15.0,29.07,NNE,19,0.0,1.0,60,0.00,,,0.00,,2013-01-01 09:52:00,
2013-01-01 01:01:00,28.0,15.0,29.06,NNE,20,0.0,1.0,57,0.00,,,0.00,,2013-01-01 10:01:00,
2013-01-01 01:11:00,29.0,16.0,29.05,NE,38,0.0,1.0,57,0.00,,,0.00,,2013-01-01 10:11:00,
2013-01-01 01:22:00,29.0,16.0,29.05,NE,38,0.0,1.0,57,0.00,,,0.00,,2013-01-01 10:22:00,
2013-01-01 01:32:00,28.0,15.0,29.05,NE,38,0.0,1.0,57,0.00,,,0.00,,2013-01-01 10:32:00,
2013-01-01 01:42:00,28.0,15.0,29.05,NE,38,0.0,1.0,57,0.00,,,0.00,,2013-01-01 10:42:00,
2013-01-01 01:52:00,28.0,15.0,29.05,NE,37,0.0,1.0,58,0.00,,,0.00,,2013-01-01 10:52:00,
2013-01-01 02:01:00,28.0,15.0,29.04,ENE,59,0.0,1.0,57,0.00,,,0.00,,2013-01-01 11:01:00,
2013-01-01 02:11:00,28.0,14.0,29.03,NE,53,0.0,1.0,56,0.00,,,0.00,,2013-01-01 11:11:00,
2013-01-01 02:22:00,28.0,14.0,29.03,NE,53,0.0,1.0,56,0.00,,,0.00,,2013-01-01 11:22:00,
2013-01-01 02:32:00,29.0,15.0,29.03,NE,53,0.0,1.0,55,0.00,,,0.00,,2013-01-01 11:32:00,
2013-01-01 02:42:00,29.0,15.0,29.03,NE,53,0.0,1.0,55,0.00,,,0.00,,2013-01-01 11:42:00,
2013-01-01 02:53:00,29.0,14.0,29.03,NNE,29,0.0,1.0,53,0.00,,,0.00,,2013-01-01 11:53:00,
2013-01-01 03:02:00,30.0,15.0,29.02,ENE,75,0.0,1.0,53,0.00,,,0.00,,2013-01-01 12:02:00,
2013-01-01 03:12:00,30.0,15.0,29.02,ENE,75,0.0,1.0,53,0.00,,,0.00,,2013-01-01 12:12:00,
2013-01-01 03:22:00,30.0,15.0,29.02,North,0,0.0,1.0,53,0.00,,,0.00,,2013-01-01 12:22:00,
2013-01-01 03:32:00,30.0,15.0,29.02,ENE,73,0.0,1.0,52,0.00,,,0.00,,2013-01-01 12:32:00,
2013-01-01 03:42:00,30.0,15.0,29.02,ENE,73,0.0,1.0,52,0.00,,,0.00,,2013-01-01 12:42:00,
2013-01-01 03:52:00,30.0,14.0,29.01,North,1,0.0,2.0,51,0.00,,,0.00,,2013-01-01 12:52:00,
2013-01-01 04:02:00,31.0,15.0,29.00,NE,56,0.0,2.0,51,0.00,,,0.00,,2013-01-01 13:02:00,
2013-01-01 04:12:00,31.0,15.0,29.00,NE,56,0.0,2.0,51,0.00,,,0.00,,2013-01-01 13:12:00,
2013-01-01 04:22:00,32.0,15.0,29.00,NE,53,0.0,2.0,49,0.00,,,0.00,,2013-01-01 13:22:00,
2013-01-01 04:32:00,32.0,15.0,29.00,NE,53,0.0,2.0,49,0.00,,,0.00,,2013-01-01 13:32:00,
2013-01-01 04:42:00,32.0,15.0,29.00,NE,53,0.0,2.0,49,0.00,,,0.00,,2013-01-01 13:42:00,
2013-01-01 04:52:00,32.0,15.0,28.97,NE,41,0.0,3.0,49,0.00,,,0.00,,2013-01-01 13:52:00,
2013-01-01 05:01:00,33.0,15.0,28.97,West,260,0.0,3.0,48,0.00,,,0.00,,2013-01-01 14:01:00,
2013-01-01 05:12:00,33.0,15.0,28.97,West,260,0.0,3.0,48,0.00,,,0.00,,2013-01-01 14:12:00,
2013-01-01 05:21:00,33.0,15.0,28.97,ENE,59,0.0,5.0,48,0.00,,,0.00,,2013-01-01 14:21:00,
2013-01-01 05:32:00,33.0,15.0,28.97,ENE,59,0.0,5.0,48,0.00,,,0.00,,2013-01-01 14:32:00,
2013-01-01 05:42:00,33.0,15.0,28.97,ENE,59,0.0,5.0,48,0.00,,,0.00,,2013-01-01 14:42:00,
2013-01-01 05:53:00,33.0,15.0,28.96,ENE,69,0.0,5.0,46,0.00,,,0.00,,2013-01-01 14:53:00,
2013-01-01 06:02:00,33.0,15.0,28.96,NE,40,0.0,5.0,47,0.00,,,0.00,,2013-01-01 15:02:00,
2013-01-01 06:12:00,33.0,15.0,28.95,ENE,59,0.0,5.0,47,0.00,,,0.00,,2013-01-01 15:12:00,
2013-01-01 06:22:00,33.0,15.0,28.95,ENE,59,0.0,5.0,47,0.00,,,0.00,,2013-01-01 15:22:00,
2013-01-01 06:32:00,33.0,15.0,28.95,ENE,59,0.0,5.0,47,0.00,,,0.00,,2013-01-01 15:32:00,
2013-01-01 06:42:00,33.0,15.0,28.95,ENE,59,0.0,5.0,47,0.00,,,0.00,,2013-01-01 15:42:00,
2013-01-01 06:53:00,33.0,15.0,28.93,NE,56,0.0,5.0,47,0.00,,,0.00,,2013-01-01 15:53:00,
2013-01-01 07:02:00,33.0,15.0,28.92,NE,49,0.0,5.0,46,0.00,,,0.00,,2013-01-01 16:02:00,
2013-01-01 07:12:00,33.0,15.0,28.92,NE,49,0.0,5.0,46,0.00,,,0.00,,2013-01-01 16:12:00,
2013-01-01 07:22:00,33.0,15.0,28.92,ENE,70,0.0,5.0,47,0.00,,,0.00,,2013-01-01 16:22:00,
2013-01-01 07:32:00,33.0,15.0,28.90,NNE,31,0.0,5.0,48,0.00,,,0.00,,2013-01-01 16:32:00,
2013-01-01 07:42:00,33.0,15.0,28.90,NNE,31,0.0,5.0,48,0.00,,,0.00,,2013-01-01 16:42:00,
2013-01-01 07:52:00,32.0,15.0,28.90,NE,54,0.0,5.0,49,0.00,,,0.00,,2013-01-01 16:52:00,
2013-01-01 08:01:00,32.0,14.0,28.89,ENE,78,0.0,5.0,47,0.00,,,0.00,,2013-01-01 17:01:00,
2013-01-01 08:11:00,32.0,14.0,28.89,ENE,78,0.0,5.0,47,0.00,,,0.00,,2013-01-01 17:11:00,
2013-01-01 08:22:00,32.0,14.0,28.89,ENE,70,0.0,5.0,47,0.00,,,0.00,,2013-01-01 17:22:00,
2013-01-01 08:32:00,33.0,14.0,28.89,NNE,33,0.0,5.0,45,0.00,,,0.00,,2013-01-01 17:32:00,
2013-01-01 08:42:00,33.0,14.0,28.89,NNE,33,0.0,5.0,45,0.00,,,0.00,,2013-01-01 17:42:00,
2013-01-01 08:53:00,33.0,15.0,28.89,ENE,62,0.0,5.0,46,0.00,,,0.00,,2013-01-01 17:53:00,
2013-01-01 09:02:00,33.0,15.0,28.87,North,1,0.0,5.0,47,0.00,,,0.00,,2013-01-01 18:02:00,
2013-01-01 09:12:00,33.0,15.0,28.87,North,1,0.0,5.0,47,0.00,,,0.00,,2013-01-01 18:12:00,
2013-01-01 09:22:00,33.0,15.0,28.86,NE,41,0.0,5.0,46,0.00,,,0.00,,2013-01-01 18:22:00,
2013-01-01 09:32:00,33.0,15.0,28.85,East,80,0.0,5.0,46,0.00,,,0.00,,2013-01-01 18:32:00,
2013-01-01 09:42:00,33.0,15.0,28.85,East,80,0.0,5.0,46,0.00,,,0.00,,2013-01-01 18:42:00,
2013-01-01 09:52:00,33.0,15.0,28.85,East,80,0.0,5.0,46,0.00,,,0.00,,2013-01-01 18:52:00,
2013-01-01 10:01:00,33.0,14.0,28.85,North,0,0.0,5.0,45,0.00,,,0.00,,2013-01-01 19:01:00,
2013-01-01 10:11:00,33.0,14.0,28.85,North,0,0.0,5.0,45,0.00,,,0.00,,2013-01-01 19:11:00,
2013-01-01 10:22:00,33.0,15.0,28.84,NE,37,0.0,5.0,46,0.00,,,0.00,,2013-01-01 19:22:00,
2013-01-01 10:32:00,33.0,15.0,28.83,ENE,69,0.0,5.0,47,0.00,,,0.00,,2013-01-01 19:32:00,
2013-01-01 10:42:00,33.0,15.0,28.83,ENE,69,0.0,5.0,47,0.00,,,0.00,,2013-01-01 19:42:00,
2013-01-01 10:52:00,33.0,15.0,28.82,ESE,119,0.0,5.0,48,0.00,,,0.00,,2013-01-01 19:52:00,
2013-01-01 11:01:00,33.0,15.0,28.82,ESE,119,0.0,5.0,48,0.00,,,0.00,,2013-01-01 20:01:00,
2013-01-01 11:11:00,33.0,15.0,28.82,ESE,119,0.0,5.0,48,0.00,,,0.00,,2013-01-01 20:11:00,
2013-01-01 11:22:00,33.0,15.0,28.80,NNE,25,0.0,5.0,46,0.00,,,0.00,,2013-01-01 20:22:00,
2013-01-01 11:32:00,33.0,15.0,28.79,NNE,15,0.0,5.0,46,0.00,,,0.00,,2013-01-01 20:32:00,
2013-01-01 11:42:00,33.0,15.0,28.79,NNE,15,0.0,5.0,46,0.00,,,0.00,,2013-01-01 20:42:00,
2013-01-01 11:52:00,34.0,14.0,28.79,North,1,0.0,5.0,44,0.00,,,0.00,,2013-01-01 20:52:00,
2013-01-01 12:02:00,34.0,14.0,28.79,North,1,0.0,5.0,44,0.00,,,0.00,,2013-01-01 21:02:00,
2013-01-01 12:12:00,34.0,15.0,28.78,WNW,299,0.0,5.0,45,0.00,,,0.00,,2013-01-01 21:12:00,
2013-01-01 12:22:00,34.0,15.0,28.78,WNW,299,0.0,5.0,45,0.00,,,0.00,,2013-01-01 21:22:00,
2013-01-01 12:32:00,34.0,14.0,28.78,WNW,299,0.0,5.0,43,0.00,,,0.00,,2013-01-01 21:32:00,
2013-01-01 12:42:00,34.0,14.0,28.78,WNW,299,0.0,5.0,43,0.00,,,0.00,,2013-01-01 21:42:00,
2013-01-01 12:52:00,34.0,15.0,28.77,ENE,60,0.0,5.0,45,0.00,,,0.00,,2013-01-01 21:52:00,
2013-01-01 13:02:00,34.0,14.0,28.76,NE,54,0.0,5.0,44,0.00,,,0.00,,2013-01-01 22:02:00,
2013-01-01 13:11:00,34.0,14.0,28.76,NE,54,0.0,5.0,44,0.00,,,0.00,,2013-01-01 22:11:00,
2013-01-01 13:22:00,35.0,15.0,28.75,NNE,24,0.0,5.0,43,0.00,,,0.00,,2013-01-01 22:22:00,
2013-01-01 13:32:00,35.0,15.0,28.74,NW,308,0.0,5.0,44,0.00,,,0.00,,2013-01-01 22:32:00,
2013-01-01 13:42:00,35.0,15.0,28.74,NW,308,0.0,5.0,44,0.00,,,0.00,,2013-01-01 22:42:00,
2013-01-01 13:52:00,35.0,15.0,28.73,NW,308,0.0,5.0,44,0.00,,,0.00,,2013-01-01 22:52:00,
2013-01-01 14:02:00,34.0,14.0,28.72,NW,308,0.0,5.0,43,0.00,,,0.00,,2013-01-01 23:02:00,
2013-01-01 14:12:00,34.0,14.0,28.72,NW,308,0.0,5.0,43,0.00,,,0.00,,2013-01-01 23:12:00,
2013-01-01 14:22:00,34.0,14.0,28.71,NW,308,0.0,5.0,43,0.00,,,0.00,,2013-01-01 23:22:00,
2013-01-01 14:32:00,35.0,15.0,28.69,NW,308,0.0,5.0,43,0.00,,,0.00,,2013-01-01 23:32:00,
2013-01-01 14:42:00,35.0,15.0,28.69,NW,308,0.0,5.0,43,0.00,,,0.00,,2013-01-01 23:42:00,
2013-01-01 14:52:00,35.0,15.0,28.70,NW,308,0.0,5.0,44,0.00,,,0.00,,2013-01-01 23:52:00,
2013-01-01 15:02:00,35.0,15.0,28.70,NW,308,0.0,5.0,44,0.00,,,0.00,,2013-01-02 00:02:00,
2013-01-01 15:12:00,35.0,15.0,28.70,NW,308,0.0,5.0,44,0.00,,,0.00,,2013-01-02 00:12:00,
2013-01-01 15:22:00,34.0,15.0,28.69,NW,308,0.0,5.0,45,0.00,,,0.00,,2013-01-02 00:22:00,
2013-01-01 15:32:00,34.0,16.0,28.67,ENE,70,0.0,5.0,48,0.00,,,0.00,,2013-01-02 00:32:00,
2013-01-01 15:42:00,34.0,16.0,28.67,ENE,70,0.0,5.0,48,0.00,,,0.00,,2013-01-02 00:42:00,
2013-01-01 15:52:00,34.0,16.0,28.67,ENE,70,0.0,5.0,47,0.00,,,0.00,,2013-01-02 00:52:00,
2013-01-01 16:02:00,34.0,16.0,28.66,ENE,70,0.0,5.0,48,0.00,,,0.00,,2013-01-02 01:02:00,
2013-01-01 16:11:00,34.0,16.0,28.66,ENE,70,0.0,5.0,48,0.00,,,0.00,,2013-01-02 01:11:00,
2013-01-01 16:22:00,34.0,16.0,28.65,ENE,70,0.0,5.0,47,0.00,,,0.00,,2013-01-02 01:22:00,
2013-01-01 16:32:00,34.0,16.0,28.64,ENE,70,0.0,5.0,47,0.00,,,0.00,,2013-01-02 01:32:00,
2013-01-01 16:42:00,34.0,16.0,28.64,ENE,70,0.0,5.0,47,0.00,,,0.00,,2013-01-02 01:42:00,
2013-01-01 16:52:00,34.0,15.0,28.63,ENE,70,0.0,5.0,45,0.00,,,0.00,,2013-01-02 01:52:00,
2013-01-01 17:02:00,34.0,15.0,28.62,ENE,70,0.0,5.0,46,0.00,,,0.00,,2013-01-02 02:02:00,
2013-01-01 17:11:00,34.0,15.0,28.62,ENE,70,0.0,5.0,46,0.00,,,0.00,,2013-01-02 02:11:00,
2013-01-01 17:22:00,34.0,15.0,28.61,ENE,70,0.0,5.0,45,0.00,,,0.00,,2013-01-02 02:22:00,
2013-01-01 17:32:00,34.0,15.0,28.61,ENE,70,0.0,5.0,45,0.00,,,0.00,,2013-01-02 02:32:00,
2013-01-01 17:42:00,34.0,15.0,28.61,ENE,70,0.0,5.0,45,0.00,,,0.00,,2013-01-02 02:42:00,
2013-01-01 17:52:00,34.0,15.0,28.60,ENE,70,0.0,5.0,45,0.00,,,0.00,,2013-01-02 02:52:00,
2013-01-01 18:01:00,34.0,15.0,28.60,ENE,70,0.0,5.0,45,0.00,,,0.00,,2013-01-02 03:01:00,
2013-01-01 18:11:00,34.0,15.0,28.60,ENE,70,0.0,5.0,45,0.00,,,0.00,,2013-01-02 03:11:00,
2013-01-01 18:22:00,35.0,16.0,28.59,ENE,70,0.0,5.0,45,0.00,,,0.00,,2013-01-02 03:22:00,
2013-01-01 18:32:00,35.0,16.0,28.59,ENE,70,0.0,5.0,45,0.00,,,0.00,,2013-01-02 03:32:00,
2013-01-01 18:42:00,35.0,16.0,28.59,ENE,70,0.0,5.0,45,0.00,,,0.00,,2013-01-02 03:42:00,
2013-01-01 18:52:00,35.0,16.0,28.57,ENE,70,0.0,5.0,45,0.00,,,0.00,,2013-01-02 03:52:00,
2013-01-01 19:02:00,35.0,16.0,28.57,ENE,70,0.0,5.0,45,0.00,,,0.00,,2013-01-02 04:02:00,
2013-01-01 19:12:00,35.0,16.0,28.57,ENE,70,0.0,5.0,45,0.00,,,0.00,,2013-01-02 04:12:00,
2013-01-01 19:22:00,34.0,16.0,28.55,NW,309,0.0,5.0,48,0.00,,,0.00,,2013-01-02 04:22:00,
2013-01-01 19:32:00,34.0,16.0,28.55,NW,309,0.0,5.0,48,0.00,,,0.00,,2013-01-02 04:32:00,
2013-01-01 19:42:00,34.0,16.0,28.55,NW,309,0.0,5.0,48,0.00,,,0.00,,2013-01-02 04:42:00,
2013-01-01 19:52:00,32.0,17.0,28.54,SE,137,0.0,5.0,53,0.00,,,0.00,,2013-01-02 04:52:00,
2013-01-01 20:02:00,32.0,17.0,28.54,SE,137,0.0,5.0,53,0.00,,,0.00,,2013-01-02 05:02:00,
2013-01-01 20:12:00,32.0,17.0,28.54,SE,137,0.0,5.0,53,0.00,,,0.00,,2013-01-02 05:12:00,
2013-01-01 20:22:00,32.0,16.0,28.52,SE,137,0.0,5.0,52,0.00,,,0.00,,2013-01-02 05:22:00,
2013-01-01 20:32:00,32.0,16.0,28.52,SE,137,0.0,5.0,52,0.00,,,0.00,,2013-01-02 05:32:00,
2013-01-01 20:42:00,32.0,16.0,28.52,SE,137,0.0,5.0,52,0.00,,,0.00,,2013-01-02 05:42:00,
2013-01-01 20:52:00,33.0,17.0,28.51,SE,137,0.0,5.0,52,0.00,,,0.00,,2013-01-02 05:52:00,
2013-01-01 21:02:00,32.0,17.0,28.51,SE,137,0.0,5.0,54,0.00,,,0.00,,2013-01-02 06:02:00,
2013-01-01 21:11:00,32.0,17.0,28.51,SE,137,0.0,5.0,54,0.00,,,0.00,,2013-01-02 06:11:00,
2013-01-01 21:22:00,31.0,18.0,28.51,SE,137,0.0,5.0,58,0.00,,,0.00,,2013-01-02 06:22:00,
2013-01-01 21:32:00,31.0,18.0,28.51,SE,137,0.0,5.0,57,0.00,,,0.00,,2013-01-02 06:32:00,
2013-01-01 21:42:00,31.0,18.0,28.51,SE,137,0.0,5.0,57,0.00,,,0.00,,2013-01-02 06:42:00,
2013-01-01 21:52:00,30.0,17.0,28.51,SE,137,0.0,5.0,58,0.00,,,0.00,,2013-01-02 06:52:00,
2013-01-01 22:01:00,30.0,17.0,28.51,SE,137,0.0,5.0,58,0.00,,,0.00,,2013-01-02 07:01:00,
2013-01-01 22:12:00,30.0,17.0,28.51,SE,137,0.0,5.0,58,0.00,,,0.00,,2013-01-02 07:12:00,
2013-01-01 22:22:00,29.0,16.0,28.52,SE,137,0.0,5.0,59,0.00,,,0.00,,2013-01-02 07:22:00,
2013-01-01 22:32:00,29.0,16.0,28.52,SE,137,0.0,5.0,59,0.00,,,0.00,,2013-01-02 07:32:00,
2013-01-01 22:42:00,29.0,16.0,28.52,SE,137,0.0,5.0,59,0.00,,,0.00,,2013-01-02 07:42:00,
2013-01-01 22:52:00,29.0,16.0,28.52,SE,137,0.0,5.0,59,0.00,,,0.00,,2013-01-02 07:52:00,
2013-01-01 23:01:00,29.0,16.0,28.53,SE,137,0.0,5.0,59,0.00,,,0.00,,2013-01-02 08:01:00,
2013-01-01 23:11:00,29.0,16.0,28.53,SE,137,0.0,5.0,59,0.00,,,0.00,,2013-01-02 08:11:00,
2013-01-01 23:22:00,29.0,16.0,28.53,SE,137,0.0,5.0,59,0.00,,,0.00,,2013-01-02 08:22:00,
2013-01-01 23:32:00,30.0,16.0,28.53,SE,137,0.0,5.0,56,0.00,,,0.00,,2013-01-02 08:32:00,
2013-01-01 23:42:00,30.0,16.0,28.53,SE,137,0.0,5.0,56,0.00,,,0.00,,2013-01-02 08:42:00,
2013-01-01 23:52:00,30.0,16.0,28.53,SE,137,0.0,5.0,56,0.00,,,0.00,,2013-01-02 08:52:00,